Last 24 Hours

Red Mountain

10 Minute Data | America/Los_Angeles
as of 9/4/26 1:57 PM PDT
Date & Time Temp (°F) Dew Pt (°F) RH (%) Wind Spd (mph) Wind Dir (°) Wind Gust (mph) Wind Gst Dir (°) Daily Max Temp (°F) Daily Min Temp (°F)
9/4/26 - 1350 71.1 42.9 36 12.0 WSW | 241 21.0 WSW | 245 73.5 59.3
9/4/26 - 1340 71.2 42.6 36 10.5 W | 280 18.6 WSW | 256 73.5 59.3
9/4/26 - 1330 69.2 43.3 39 8.6 WNW | 282 15.7 W | 272 71.0 59.3
9/4/26 - 1320 69.1 44.0 40 10.4 W | 260 17.0 W | 274 70.1 59.3
9/4/26 - 1310 68.6 44.2 41 8.6 W | 267 15.6 SW | 224 70.1 59.3
9/4/26 - 1300 68.1 44.0 42 10.7 W | 275 17.5 W | 276 68.8 59.3
9/4/26 - 1250 67.2 44.6 44 9.5 WNW | 285 15.9 WNW | 287 68.2 59.3
9/4/26 - 1240 67.4 44.6 44 10.3 W | 262 18.2 W | 266 68.2 59.3
9/4/26 - 1230 67.1 45.9 46 8.7 W | 261 16.7 W | 262 68.2 59.3
9/4/26 - 1220 66.4 45.6 47 10.1 WSW | 255 20.0 W | 260 67.4 59.3
9/4/26 - 1210 66.0 45.8 48 9.8 WSW | 248 14.1 SW | 236 67.4 59.3
9/4/26 - 1200 66.2 46.7 49 8.7 WSW | 250 16.2 WSW | 243 67.4 59.3
9/4/26 - 1150 66.3 47.8 51 8.8 WSW | 257 15.6 WSW | 258 67.4 59.3
9/4/26 - 1140 66.2 47.7 51 8.7 W | 259 14.5 W | 276 67.4 59.3
9/4/26 - 1130 65.8 47.2 51 7.9 WSW | 252 12.8 W | 260 67.4 59.3
9/4/26 - 1120 65.8 47.0 51 7.6 WSW | 242 14.0 SW | 236 67.4 59.3
9/4/26 - 1110 65.3 48.0 54 8.6 WSW | 240 14.9 WSW | 242 67.4 59.3
9/4/26 - 1100 65.5 47.8 53 8.1 WSW | 253 12.8 W | 272 67.4 59.3
9/4/26 - 1050 66.5 45.9 47 7.4 SW | 236 12.5 W | 261 67.4 59.3
9/4/26 - 1040 65.8 42.2 42 7.5 SW | 228 11.5 SW | 225 67.4 59.3
9/4/26 - 1030 65.5 41.6 42 6.9 SW | 236 11.6 SW | 230 67.4 59.3
9/4/26 - 1020 65.1 40.6 41 8.3 SW | 234 12.9 WSW | 238 66.0 59.3
9/4/26 - 1010 65.8 34.8 32 6.1 SW | 222 9.7 SW | 226 66.0 59.3
9/4/26 - 1000 65.8 33.8 30 5.7 SW | 225 10.2 W | 264 66.0 59.3
9/4/26 - 0950 65.1 35.2 33 4.9 SW | 220 7.5 WSW | 241 66.0 59.3
9/4/26 - 0940 65.6 32.6 29 3.9 SW | 224 7.5 WSW | 246 66.0 59.3
9/4/26 - 0930 65.1 29.8 26 3.7 SSW | 213 6.1 SW | 221 65.9 59.3
9/4/26 - 0920 64.8 27.8 25 4.3 SW | 228 5.8 SW | 231 65.9 59.3
9/4/26 - 0910 65.0 26.8 24 4.2 SW | 221 6.2 SSW | 204 65.9 59.3
9/4/26 - 0900 65.6 13.3 13 3.4 WSW | 243 5.5 W | 260 65.9 59.3
9/4/26 - 0850 65.7 8.7 11 3.0 W | 265 5.0 W | 269 65.9 59.3
9/4/26 - 0840 65.6 2.3 8 2.1 WSW | 246 5.7 WSW | 249 65.8 59.3
9/4/26 - 0830 65.4 -0.1 7 3.2 W | 261 5.0 W | 260 65.5 59.3
9/4/26 - 0820 65.3 1.3 8 1.9 W | 261 5.3 WSW | 252 65.5 59.3
9/4/26 - 0810 65.0 0.5 7 2.0 W | 263 3.5 WSW | 253 65.0 59.3
9/4/26 - 0800 64.8 1.3 8 3.2 W | 275 4.6 W | 271 64.9 59.3
9/4/26 - 0750 64.6 2.2 8 3.3 WNW | 290 4.4 WNW | 284 64.7 59.3
9/4/26 - 0740 64.3 2.0 8 1.4 W | 275 2.8 W | 271 64.5 59.3
9/4/26 - 0730 63.9 2.2 8 0.9 NW | 309 2.6 NW | 304 64.1 59.3
9/4/26 - 0720 63.4 2.4 8 1.3 WSW | 251 2.5 WSW | 242 63.6 59.3
9/4/26 - 0710 63.2 2.5 9 3.0 WSW | 249 5.9 W | 261 63.3 59.3
9/4/26 - 0700 63.2 2.6 9 5.0 W | 265 6.7 W | 262 63.3 59.3
9/4/26 - 0650 63.0 3.4 9 4.5 W | 276 6.0 W | 269 63.2 59.3
9/4/26 - 0640 62.9 3.3 9 5.8 W | 279 7.7 W | 273 63.2 59.3
9/4/26 - 0630 62.9 2.5 9 7.3 W | 280 9.1 W | 272 63.2 59.3
9/4/26 - 0620 62.8 1.1 8 8.2 W | 275 9.4 W | 273 62.9 59.3
9/4/26 - 0610 62.6 1.2 8 6.5 W | 280 8.3 W | 276 62.7 59.3
9/4/26 - 0600 62.4 1.4 8 5.6 WNW | 286 7.2 W | 271 62.6 59.3
9/4/26 - 0550 62.1 2.1 9 4.8 WNW | 282 6.5 W | 279 62.4 59.3
9/4/26 - 0540 60.7 24.1 25 2.5 NW | 326 5.2 WNW | 288 61.6 59.3
9/4/26 - 0530 60.6 26.5 27 1.9 NNW | 344 3.1 NW | 324 61.6 59.3
9/4/26 - 0520 59.8 31.7 35 2.2 N | 6 3.7 WNW | 285 61.6 59.3
9/4/26 - 0510 59.8 31.2 34 1.4 N | 357 2.6 NNE | 21 61.6 59.3
9/4/26 - 0500 59.5 36.2 42 0.6 WSW | 246 1.6 SW | 232 61.6 59.3
9/4/26 - 0450 59.7 36.9 42 1.8 SW | 234 3.1 SW | 227 61.6 59.6
9/4/26 - 0440 59.8 36.6 42 3.7 WSW | 244 5.6 SW | 226 61.6 59.6
9/4/26 - 0430 59.8 38.3 45 3.3 WSW | 249 4.8 SW | 220 61.6 59.6
9/4/26 - 0420 59.8 38.2 45 3.2 WSW | 248 4.7 WSW | 241 61.6 59.6
9/4/26 - 0410 59.9 38.4 45 3.4 SW | 224 4.8 SW | 234 61.6 59.9
9/4/26 - 0400 60.0 38.1 44 2.6 SW | 219 4.0 SSW | 212 61.6 59.9
9/4/26 - 0350 60.0 38.4 44 2.9 SW | 236 4.9 WSW | 243 61.6 59.9
9/4/26 - 0340 60.1 38.6 45 3.8 WSW | 245 5.3 SW | 236 61.6 60.0
9/4/26 - 0330 60.1 39.1 46 4.5 W | 271 7.2 W | 264 61.6 60.0
9/4/26 - 0320 60.2 39.0 45 5.6 WSW | 245 7.8 SW | 230 61.6 60.0
9/4/26 - 0310 60.1 39.2 46 6.7 WSW | 239 8.8 WSW | 237 61.6 60.0
9/4/26 - 0300 60.1 39.4 46 6.3 WSW | 247 7.8 SW | 234 61.6 60.0
9/4/26 - 0250 60.2 39.0 45 6.1 WSW | 249 7.7 WSW | 251 61.6 60.0
9/4/26 - 0240 60.4 39.0 45 5.9 WSW | 255 7.7 WSW | 253 61.6 60.4
9/4/26 - 0230 60.6 38.1 43 6.2 WSW | 258 8.1 W | 261 61.6 60.4
9/4/26 - 0220 60.6 37.4 42 7.0 WSW | 255 8.5 WSW | 256 61.6 60.4
9/4/26 - 0210 60.8 37.9 43 7.1 WSW | 251 8.7 WSW | 256 61.6 60.4
9/4/26 - 0200 61.2 37.7 42 7.4 SW | 236 10.7 WSW | 241 61.6 60.4
9/4/26 - 0150 61.4 37.2 41 7.8 SW | 222 10.4 SW | 223 61.6 60.4
9/4/26 - 0140 61.3 38.0 42 6.6 SW | 224 9.9 SW | 221 61.6 60.4
9/4/26 - 0130 61.4 37.6 41 5.9 SW | 229 9.0 SSW | 212 61.6 60.4
9/4/26 - 0120 61.3 36.9 40 5.1 WSW | 242 7.8 WSW | 255 61.4 60.4
9/4/26 - 0110 60.9 36.9 41 2.4 SW | 228 4.7 SW | 220 61.2 60.4
9/4/26 - 0100 60.2 40.7 49 0.6 NNE | 23 2.0 NE | 34 72.9 59.3
9/4/26 - 0050 60.1 41.8 51 1.5 ENE | 62 2.6 E | 96 72.9 59.3
9/4/26 - 0040 59.6 42.6 53 1.9 NNE | 28 2.9 NE | 41 72.9 59.3
9/4/26 - 0030 59.4 43.4 55 2.7 N | 11 4.5 NNW | 332 72.9 59.3
9/4/26 - 0020 59.3 43.8 56 3.1 N | 2 4.2 N | 351 72.9 59.3
9/4/26 - 0010 59.4 44.0 57 3.4 NNW | 348 4.9 N | 353 72.9 59.3
9/4/26 - 0000 60.2 43.8 55 3.9 NW | 326 6.0 WNW | 293 72.9 59.4
9/3/26 - 2350 60.6 42.7 52 5.5 WNW | 299 7.0 WNW | 294 72.9 59.4
9/3/26 - 2340 60.9 43.2 52 6.3 WNW | 290 8.1 W | 281 72.9 59.4
9/3/26 - 2330 61.2 43.0 51 6.8 WNW | 290 8.0 WNW | 283 72.9 59.4
9/3/26 - 2320 60.7 43.6 53 5.6 WNW | 294 6.4 WNW | 289 72.9 59.4
9/3/26 - 2310 60.1 45.8 59 4.5 NW | 318 5.6 NW | 310 72.9 59.4
9/3/26 - 2300 60.2 45.6 58 4.6 NW | 316 6.1 NW | 304 72.9 59.4
9/3/26 - 2250 60.5 45.1 57 5.3 WNW | 302 6.1 WNW | 298 72.9 59.4
9/3/26 - 2240 60.3 45.7 58 5.1 WNW | 302 6.1 WNW | 288 72.9 59.4
9/3/26 - 2230 60.4 45.5 58 5.0 WNW | 294 6.4 WNW | 289 72.9 59.4
9/3/26 - 2220 60.7 45.2 57 5.0 WNW | 294 6.5 W | 277 72.9 59.4
9/3/26 - 2210 60.8 44.8 56 6.1 WNW | 295 7.8 WNW | 292 72.9 59.4
9/3/26 - 2200 60.5 44.6 56 4.4 WNW | 300 6.1 WNW | 293 72.9 59.4
9/3/26 - 2150 60.8 44.0 54 4.1 NW | 306 5.6 WNW | 295 72.9 59.4
9/3/26 - 2140 60.6 43.9 54 4.9 NW | 314 6.9 NW | 310 72.9 59.4
9/3/26 - 2130 60.3 44.4 56 6.0 NW | 324 7.2 NW | 324 72.9 59.4
9/3/26 - 2120 60.0 45.4 58 5.7 NNW | 335 8.1 NW | 314 72.9 59.4
9/3/26 - 2110 60.0 46.7 61 6.4 NNW | 339 7.5 NNW | 337 72.9 59.4
9/3/26 - 2100 59.8 47.6 64 5.9 NNW | 347 7.2 NNW | 346 72.9 59.4
9/3/26 - 2050 59.6 48.9 68 5.5 N | 3 6.4 NNE | 13 72.9 59.4
9/3/26 - 2040 60.2 47.7 63 5.4 NNE | 14 6.4 NNE | 17 72.9 59.6
9/3/26 - 2030 60.8 45.6 57 3.4 N | 351 4.2 N | 2 72.9 59.6
9/3/26 - 2020 61.2 44.3 54 3.5 NW | 305 4.5 WNW | 295 72.9 59.6
9/3/26 - 2010 61.7 44.0 52 3.6 NW | 316 4.5 NNW | 334 72.9 59.6
9/3/26 - 2000 61.9 43.6 51 3.7 NW | 319 5.3 NW | 315 72.9 59.6
9/3/26 - 1950 61.9 43.2 50 3.6 WNW | 298 4.7 W | 278 72.9 59.6
9/3/26 - 1940 62.3 42.9 49 2.8 WNW | 285 3.7 W | 278 72.9 59.6
9/3/26 - 1930 62.6 43.3 49 2.9 NW | 307 5.8 NW | 324 72.9 59.6
9/3/26 - 1920 62.3 42.7 48 3.0 W | 264 4.4 W | 270 72.9 59.6
9/3/26 - 1910 62.8 42.5 47 3.6 W | 259 5.5 W | 265 72.9 59.6
9/3/26 - 1900 63.0 43.9 50 4.4 W | 270 8.3 NW | 320 72.9 59.6
9/3/26 - 1850 62.3 47.0 57 5.8 WSW | 249 8.2 WSW | 244 72.9 59.6
9/3/26 - 1840 62.4 47.3 58 5.8 WSW | 246 9.5 WSW | 251 72.9 59.6
9/3/26 - 1830 62.0 49.2 63 7.0 WSW | 237 10.4 WSW | 237 72.9 59.6
9/3/26 - 1820 62.2 49.5 63 9.0 WSW | 241 13.4 SW | 232 72.9 59.6
9/3/26 - 1810 62.7 49.6 62 9.9 WSW | 240 14.2 WSW | 245 72.9 59.6
9/3/26 - 1800 63.0 49.6 62 11.9 WSW | 240 17.8 WSW | 244 72.9 59.6
9/3/26 - 1750 63.7 49.1 59 13.2 WSW | 238 18.6 WSW | 245 72.9 59.6
9/3/26 - 1740 64.5 48.2 55 12.9 SW | 236 18.3 SW | 224 72.9 59.6
9/3/26 - 1730 65.5 48.0 53 13.5 WSW | 237 20.1 SW | 220 72.9 59.6
9/3/26 - 1720 65.4 47.7 53 12.4 SW | 233 18.6 SW | 235 72.9 59.6
9/3/26 - 1710 65.5 47.3 52 14.0 SW | 235 20.6 SW | 228 72.9 59.6
9/3/26 - 1700 67.0 46.6 48 11.4 SW | 235 18.7 WSW | 246 72.9 59.6
9/3/26 - 1650 67.4 46.6 47 12.8 WSW | 237 19.0 WSW | 246 72.9 59.6
9/3/26 - 1640 67.4 45.5 45 13.4 SW | 233 20.5 WSW | 243 72.9 59.6
9/3/26 - 1630 68.6 45.5 43 13.1 WSW | 240 21.6 WSW | 244 72.9 59.6
9/3/26 - 1620 69.0 44.7 41 12.1 SW | 236 20.3 WSW | 250 72.9 59.6
9/3/26 - 1610 69.4 44.1 40 13.7 WSW | 237 20.1 SW | 232 72.9 59.6
9/3/26 - 1600 68.9 43.5 40 13.2 SW | 235 21.7 WSW | 247 72.9 59.6
9/3/26 - 1550 70.1 42.9 37 12.8 SW | 233 20.0 WSW | 245 72.9 59.6
9/3/26 - 1540 70.1 42.4 37 12.9 WSW | 238 21.3 WSW | 255 72.9 59.6
9/3/26 - 1530 69.4 41.7 37 11.0 SW | 232 19.6 WSW | 242 72.9 59.6
9/3/26 - 1520 70.3 40.7 34 11.6 WSW | 239 19.1 WSW | 256 72.9 59.6
9/3/26 - 1510 69.3 39.4 33 12.4 SW | 233 20.8 WSW | 251 72.9 59.6
9/3/26 - 1500 70.8 39.1 31 11.5 WSW | 240 19.9 W | 259 72.9 59.6
9/3/26 - 1450 69.5 38.0 32 11.1 SW | 224 19.6 SSW | 205 72.5 59.6
9/3/26 - 1440 70.2 38.8 32 12.2 WSW | 240 20.2 W | 260 72.5 59.6
9/3/26 - 1430 70.2 38.7 32 9.3 SW | 233 17.5 WSW | 258 72.5 59.6
9/3/26 - 1420 70.4 38.0 31 10.0 SW | 232 18.7 SW | 234 72.5 59.6
9/3/26 - 1410 70.7 37.6 30 9.1 SW | 236 15.9 SW | 234 72.5 59.6
9/3/26 - 1400 70.3 36.9 29 8.2 SW | 220 16.4 SW | 232 72.5 59.6
9/3/26 - 1350 68.8 37.2 31 10.3 WSW | 237 16.9 W | 262 71.5 59.6
Max 71.2 49.6 68 14.0 - 21.7 - 73.5 60.4
Avg 63.7 36.5 41 6.5 - 10.0 - - -
Min 59.3 -0.1 7 0.6 - 1.6 - 61.2 59.3